[[{"header":{"parameterUnit":"m.s-1","parameterCategory":1,"la1":30.2991,"la2":30.254,"lo1":-89.0895,"lo2":-89.0444,"dy":0.0017,"dx":0.0017,"nx":28,"ny":28,"refTime":"2023-04-26T15:00:00:Z","depth":0,"parameterNumber":2,"parameterNumberName":"U-component_of_WINDS"},"data":[0,0,0,0,0,0,0,0,0,0,0,0,0,0,0,0,0,0,0,0,0,0,0,0,0,0,0,0,0,0,0,0,0,0,0,0,0,0,0,0,0,0,0,0,0,0,0,0,0,0,0,0,0,0,0,0,0,0,0.2286,0.2287,0,0.231,0.231,0.2311,0.2345,0.2346,0.2346,0.2347,0.2369,0.2369,0.2369,0,0,0,0,0,0,0,0,0,0,0,0,0,0.2269,0.2269,0.2286,0.2287,0.2287,0.231,0.231,0.2311,0.2345,0.2346,0.2346,0.2347,0.2369,0.2369,0.2369,0,0,0,0,0,0,0,0,0,0,0,0,0,0.2283,0.2269,0.2286,0.2307,0.2309,0.231,0.2311,0.2311,0.2345,0.2346,0.2346,0.2347,0.2369,0.2369,0.2369,0.2352,0,0,0.237,0.237,0,0,0,0,0,0,0,0,0.2282,0.2283,0.2303,0.2305,0.2308,0.2326,0.2313,0.2325,0.2344,0.2331,0.2347,0.2348,0.2354,0.2355,0.2358,0.2353,0.2354,0.237,0.237,0.237,0.237,0,0,0,0,0,0,0,0.2281,0.2282,0.2296,0.2304,0.2306,0.2314,0.2317,0.2315,0.2337,0.2332,0.2335,0.2337,0.2355,0.2358,0.2359,0.2354,0.237,0.237,0.237,0.237,0.2337,0.2336,0,0,0,0,0,0,0.2277,0.2281,0.2295,0.2296,0.2297,0.2314,0.2317,0.2319,0.2337,0.2341,0.2336,0.2339,0.2357,0.2358,0.236,0.234,0.237,0.237,0.237,0.2338,0.2336,0.2335,0,0,0,0,0,0,0.2277,0.2278,0.2294,0.229,0.2292,0.2313,0.2315,0.2319,0.2321,0.234,0.2344,0.2335,0.2358,0.2359,0.2354,0.2341,0.237,0.237,0.2339,0.2337,0.2336,0.2301,0,0,0,0,0,0,0.2276,0.2278,0.2271,0.2289,0.2292,0.2288,0.2314,0.2319,0.2322,0.2325,0.234,0.2343,0.2359,0.2353,0.2354,0.2342,0.237,0.234,0.2338,0.2336,0.2303,0.2298,0.2294,0,0,0,0,0,0.2275,0.226,0.2271,0.2272,0.2285,0.2287,0.2289,0.2307,0.232,0.2314,0.2327,0.2343,0.2343,0.2353,0.2353,0.2341,0.2341,0.2339,0.2336,0.2305,0.2299,0.2294,0,0,0,0,0,0,0.2239,0.2263,0.2275,0.2265,0.2274,0.2293,0.2286,0.2301,0.2305,0.2308,0.233,0.2333,0.2325,0.2333,0.2343,0.2325,0.2344,0.2342,0.232,0.2315,0.2311,0.2308,0.237,0,0,0,0,0,0.2231,0.2231,0.2251,0.2241,0.2245,0.2264,0.2266,0.2279,0.2289,0.2293,0.2305,0.2313,0.2315,0.2316,0.2318,0.2305,0.2308,0.2297,0.2293,0.2289,0.2286,0.228,0.2275,0.2329,0.2329,0.2329,0,0,0.2212,0.2225,0.2223,0.2234,0.2242,0.2241,0.2267,0.2265,0.2265,0.2292,0.2288,0.2297,0.2308,0.2298,0.2294,0.2304,0.2273,0.2286,0.2283,0.2283,0.2277,0.2272,0.2267,0.2327,0.2327,0.2328,0,0,0.2177,0.2187,0.218,0.2188,0.2201,0.2214,0.2212,0.2229,0.2236,0.2232,0.2253,0.2253,0.2255,0.2262,0.2266,0.2235,0.225,0.2235,0.2212,0.2205,0.22,0.2197,0.2185,0.218,0.2233,0.2233,0.2233,0,0.2152,0.2152,0.2174,0.2171,0.2174,0.2201,0.2192,0.2199,0.2212,0.2213,0.2225,0.2229,0.2238,0.223,0.2223,0.2225,0.2223,0.2233,0.2199,0.2196,0.2193,0.2182,0.2177,0.2231,0.2231,0.2231,0.2232,0,0.212,0.212,0.2112,0.2125,0.2128,0.2122,0.2142,0.2143,0.2156,0.2169,0.2164,0.2176,0.2182,0.2181,0.2194,0.2175,0.2181,0.2195,0.2215,0.2185,0.2175,0.2171,0.2228,0.2229,0.2229,0.223,0,0,0.2062,0.2087,0.2084,0.209,0.2106,0.2106,0.2102,0.2108,0.2108,0.2116,0.2112,0.2115,0.2129,0.2133,0.2147,0.2141,0.2115,0.2157,0.2157,0.2148,0.2094,0.2082,0.2076,0.2126,0.2125,0.2124,0.2093,0,0.203,0.2024,0.2044,0.2033,0.2033,0.2058,0.2054,0.2064,0.2075,0.2076,0.2089,0.209,0.2108,0.2111,0.2107,0.2119,0.2104,0.2122,0.2121,0.2121,0.2117,0.2071,0.2058,0.2028,0.2089,0.2088,0.2088,0,0.1991,0.1998,0.1987,0.2004,0.2005,0.2001,0.2008,0.201,0.2021,0.203,0.2035,0.2052,0.2048,0.2068,0.2063,0.2074,0.2076,0.2082,0.2081,0.2081,0.2102,0.2068,0.2019,0.2013,0.2082,0.2082,0.2083,0,0.1948,0.1955,0.1949,0.1954,0.1974,0.1971,0.1979,0.1991,0.1994,0.2,0.2002,0.2008,0.2011,0.2015,0.2032,0.2045,0.2025,0.2046,0.2031,0.2031,0.2025,0.2025,0.1973,0.2028,0.2028,0.2028,0.2028,0,0.1909,0.1901,0.193,0.1927,0.1919,0.1941,0.1933,0.1943,0.1954,0.1953,0.1975,0.1973,0.1998,0.1998,0.2012,0.2006,0.2007,0.2013,0.2017,0.201,0.2009,0.201,0.2013,0.2027,0.2027,0.2027,0.2027,0,0.186,0.1879,0.1874,0.1894,0.1899,0.1892,0.1909,0.1906,0.192,0.1918,0.1919,0.1939,0.1941,0.196,0.1966,0.1975,0.1963,0.1971,0.1959,0.1961,0.1945,0.1945,0.1891,0.1884,0.1944,0.1944,0.1943,0,0.1833,0.1827,0.1847,0.1848,0.1855,0.1857,0.186,0.1882,0.1884,0.1897,0.1893,0.1897,0.1901,0.1903,0.1918,0.1923,0.193,0.1911,0.1931,0.1925,0.1929,0.1928,0.1927,0.1906,0.1905,0.1905,0.1904,0,0.1782,0.1792,0.1796,0.1804,0.1807,0.1813,0.1821,0.1821,0.1846,0.1847,0.1849,0.1853,0.1859,0.1863,0.187,0.1878,0.1895,0.1898,0.1895,0.1887,0.188,0.1883,0.1946,0.1899,0.1899,0.19,0.19,0.19,0.1742,0.1739,0.1752,0.1756,0.1765,0.1772,0.177,0.1784,0.1787,0.1794,0.1807,0.1808,0.1819,0.1831,0.1838,0.1839,0.1849,0.1844,0.1842,0.184,0.1837,0.1881,0.184,0.184,0.1841,0.1841,0.1841,0,0.1692,0.1703,0.1706,0.1717,0.1719,0.1737,0.1747,0.1747,0.1748,0.1758,0.1762,0.1765,0.1768,0.1784,0.179,0.1787,0.1795,0.1787,0.1787,0.1788,0.1828,0.183,0.1781,0.1781,0.1781,0.1781,0.1781,0.1781,0.1667,0.1661,0.1673,0.1672,0.1682,0.1684,0.1688,0.1694,0.1702,0.1705,0.1708,0.1719,0.1731,0.1738,0.1742,0.1747,0.1747,0.1737,0.1743,0.178,0.1786,0.1791,0.1793,0.1737,0.1737,0.1704,0.1703,0.1703]},{"header":{"parameterUnit":"m.s-1","parameterCategory":1,"la1":30.2991,"la2":30.254,"lo1":-89.0895,"lo2":-89.0444,"dy":0.0017,"dx":0.0017,"nx":28,"ny":28,"refTime":"2023-04-26T15:00:00:Z","depth":0,"parameterNumber":3,"parameterNumberName":"V-component_of_WINDS"},"data":[0,0,0,0,0,0,0,0,0,0,0,0,0,0,0,0,0,0,0,0,0,0,0,0,0,0,0,0,0,0,0,0,0,0,0,0,0,0,0,0,0,0,0,0,0,0,0,0,0,0,0,0,0,0,0,0,0,0,0.3056,0.3056,0,0.2973,0.2972,0.2971,0.2912,0.2911,0.2911,0.291,0.2822,0.282,0.2819,0,0,0,0,0,0,0,0,0,0,0,0,0,0.3161,0.3159,0.3056,0.3055,0.3054,0.2974,0.2972,0.2971,0.2912,0.2911,0.2911,0.291,0.2823,0.2821,0.2818,0,0,0,0,0,0,0,0,0,0,0,0,0,0.31,0.3159,0.3057,0.3015,0.3011,0.2974,0.2972,0.2971,0.2912,0.2911,0.2911,0.291,0.2824,0.2821,0.2818,0.2815,0,0,0.2809,0.2808,0,0,0,0,0,0,0,0,0.3104,0.3097,0.3022,0.3018,0.3013,0.2952,0.2977,0.2919,0.2912,0.2949,0.291,0.291,0.2866,0.286,0.2845,0.2811,0.2807,0.2809,0.2807,0.2806,0.2805,0,0,0,0,0,0,0,0.3108,0.31,0.3023,0.3021,0.3015,0.3,0.299,0.2965,0.2913,0.2946,0.2942,0.2933,0.2863,0.2848,0.2843,0.2806,0.2809,0.2807,0.2805,0.2804,0.2764,0.2765,0,0,0,0,0,0,0.3119,0.3104,0.3026,0.3021,0.3058,0.2998,0.2988,0.2972,0.2913,0.2903,0.2933,0.293,0.2854,0.2846,0.284,0.2832,0.2806,0.2803,0.2802,0.2764,0.2764,0.2765,0,0,0,0,0,0,0.3122,0.3113,0.3029,0.3061,0.3049,0.2997,0.298,0.2971,0.2956,0.2903,0.2893,0.2928,0.2853,0.2844,0.2822,0.2828,0.2802,0.28,0.2763,0.2764,0.2765,0.2817,0,0,0,0,0,0,0.3125,0.3114,0.3113,0.3062,0.3048,0.3014,0.2981,0.297,0.2952,0.2947,0.2896,0.2886,0.2851,0.2826,0.2819,0.2824,0.2797,0.2762,0.2763,0.2764,0.2815,0.282,0.2825,0,0,0,0,0,0.3129,0.3131,0.3113,0.3104,0.3046,0.3015,0.3007,0.2967,0.2953,0.2951,0.2917,0.2888,0.2829,0.2825,0.2816,0.282,0.2761,0.2763,0.2764,0.2813,0.2819,0.2824,0,0,0,0,0,0,0.3183,0.3123,0.3103,0.3089,0.3057,0.3005,0.3001,0.2975,0.2947,0.2943,0.2894,0.2883,0.2866,0.2841,0.2837,0.2814,0.2791,0.2791,0.2831,0.2837,0.2842,0.2848,0.2795,0,0,0,0,0,0.3194,0.3174,0.3122,0.3114,0.31,0.3054,0.3038,0.3011,0.2976,0.2962,0.2926,0.2893,0.2866,0.285,0.2823,0.2811,0.2799,0.2809,0.2814,0.2818,0.2819,0.281,0.2815,0.277,0.277,0.277,0,0,0.3215,0.3179,0.317,0.3125,0.3097,0.3077,0.3043,0.3023,0.3008,0.2959,0.2936,0.2909,0.2868,0.2851,0.2842,0.2829,0.2828,0.282,0.2824,0.2822,0.2812,0.2817,0.282,0.2771,0.2771,0.2771,0,0,0.3243,0.3215,0.3205,0.3179,0.3138,0.3107,0.3105,0.3056,0.3036,0.3013,0.2976,0.2956,0.2912,0.2885,0.2865,0.2883,0.2856,0.2876,0.2901,0.2894,0.2897,0.29,0.2907,0.291,0.2876,0.2876,0.2876,0,0.3274,0.3244,0.3203,0.3186,0.3167,0.3123,0.3112,0.3088,0.304,0.3028,0.3014,0.2958,0.2927,0.2904,0.2908,0.2894,0.2889,0.2882,0.29,0.2903,0.2905,0.291,0.2913,0.2879,0.2879,0.2879,0.2878,0,0.3285,0.3264,0.3261,0.3217,0.3198,0.3184,0.314,0.3125,0.3099,0.307,0.3046,0.3008,0.2973,0.2965,0.2939,0.2937,0.2931,0.291,0.2886,0.2912,0.2917,0.2919,0.2883,0.2882,0.2881,0.2881,0,0,0.3345,0.3279,0.3279,0.3258,0.321,0.3193,0.3177,0.3143,0.3132,0.31,0.3085,0.3049,0.3029,0.3007,0.2977,0.297,0.2988,0.295,0.2948,0.2958,0.2984,0.3,0.3004,0.2969,0.2969,0.297,0.2987,0,0.3366,0.3337,0.3299,0.3282,0.3262,0.322,0.3206,0.3174,0.3146,0.3125,0.3093,0.3068,0.3044,0.303,0.3022,0.2988,0.2992,0.2986,0.2954,0.2954,0.2966,0.3006,0.3023,0.3042,0.2989,0.2989,0.2989,0,0.3387,0.3359,0.334,0.3294,0.3284,0.3273,0.3239,0.3219,0.3182,0.3162,0.3138,0.3106,0.3086,0.3066,0.3037,0.3034,0.3019,0.3,0.3,0.2995,0.2973,0.3003,0.3047,0.305,0.2992,0.2991,0.2991,0,0.3434,0.3391,0.3374,0.3358,0.3303,0.3296,0.3273,0.3235,0.3218,0.3188,0.3176,0.3143,0.3126,0.3101,0.3061,0.305,0.3038,0.3013,0.302,0.3021,0.3019,0.302,0.3062,0.3009,0.3009,0.3009,0.3009,0,0.3462,0.3452,0.3394,0.3384,0.3372,0.3328,0.3317,0.3289,0.3257,0.324,0.32,0.3185,0.3133,0.3112,0.308,0.3062,0.3054,0.3037,0.3029,0.3041,0.3043,0.303,0.3028,0.301,0.301,0.301,0.3009,0,0.3511,0.3473,0.3452,0.3402,0.3389,0.3383,0.3339,0.3327,0.3297,0.3276,0.3269,0.3221,0.3193,0.3151,0.3111,0.309,0.3076,0.3063,0.309,0.3085,0.3094,0.3094,0.3128,0.3131,0.3077,0.3078,0.3079,0,0.3532,0.3524,0.3474,0.346,0.3438,0.3417,0.3399,0.3355,0.3338,0.3296,0.3289,0.3259,0.3232,0.319,0.3151,0.312,0.3105,0.312,0.31,0.3113,0.3106,0.3107,0.3106,0.3124,0.3125,0.3126,0.3126,0,0.3573,0.3554,0.353,0.35,0.348,0.3453,0.3425,0.3416,0.3366,0.3348,0.332,0.33,0.3259,0.323,0.3193,0.3168,0.3139,0.3133,0.3133,0.3145,0.3161,0.3153,0.3102,0.3132,0.3132,0.3131,0.3131,0.3131,0.3608,0.3599,0.3563,0.3537,0.3512,0.3486,0.3473,0.3441,0.3417,0.3382,0.3357,0.3331,0.3294,0.3242,0.3218,0.3197,0.3184,0.3184,0.3184,0.3184,0.3189,0.3165,0.319,0.3189,0.3189,0.3189,0.3189,0,0.3647,0.3622,0.3599,0.3561,0.3541,0.3516,0.3484,0.3468,0.3446,0.3414,0.339,0.3358,0.3329,0.3288,0.3255,0.3246,0.3232,0.3239,0.3239,0.3234,0.3202,0.3205,0.3251,0.3251,0.3251,0.3251,0.3251,0.3251,0.3665,0.3648,0.3625,0.3595,0.3569,0.3544,0.3528,0.3504,0.3478,0.3445,0.3421,0.3395,0.3359,0.3324,0.3296,0.3285,0.3275,0.3286,0.3271,0.3242,0.3236,0.3231,0.3234,0.3284,0.3284,0.3304,0.3305,0.3305]}]]